Dalzell, IL

2:49 PM CST on January 17, 2017 (GMT -0600)
Illinois Valley Regional-Duncan

Weather History for KVYS - January, 2014

Change the Weather History Date:

Thursday, January 30, 2014

  Actual Average Record
Temperature  
Mean Temperature 26 °F -  
Max Temperature 32 °F 30 °F 59 °F (2012)
Min Temperature 18 °F 12 °F -13 °F (1966)
Degree Days  
Heating Degree Days 40    
Moisture  
Dew Point 18 °F    
Average Humidity 71    
Maximum Humidity 90    
Minimum Humidity 49    
Precipitation  
Precipitation 0.00 in - - ()
Sea Level Pressure  
Sea Level Pressure 29.81 in    
Wind  
Wind Speed 21 mph (SSW)    
Max Wind Speed 31 mph    
Max Gust Speed 41 mph    
Visibility 9 miles    
Events Snow    
Averages and records for this station are not official NWS values.
T = Trace of Precipitation, MM = Missing Value Source: NWS Daily Summary

Daily Weather History Graph

Daily Weather History Graph

Search for Another Location

Airport or City:

Trip Planner

Search our weather history database for the weather conditions in past years. The results will help you decide how hot, cold, wet, or windy it might be!

Date:

Astronomy

Jan. 30, 2014 Rise Set
Actual Time 7:09 AM CST 5:10 PM CST
Civil Twilight 6:40 AM CST 5:39 PM CST
Nautical Twilight 6:07 AM CST 6:13 PM CST
Astronomical Twilight 5:34 AM CST 6:45 PM CST
Moon 6:35 AM CST (1/30) 5:22 PM CST (1/30)
Length of Visible Light 10h 59m
Length of Day
10h 00m
Waning Crescent, 0% of the Moon is Illuminated
Jan 30
Waning Crescent
Jan 30
New
Feb 6
First Quarter
Feb 14
Full
Feb 22
Last Quarter

Hourly Weather History & Observations

Time (CST) Temp. Windchill Dew Point Humidity Pressure Visibility Wind Dir Wind Speed Gust Speed Precip Events Conditions
12:15 AM 21.9 °F 6.5 °F 9.3 °F 58% 29.97 in 10.0 mi South 20.7 mph 26.5 mph N/A   Clear
12:35 AM 21.9 °F 6.2 °F 9.7 °F 59% 29.96 in 10.0 mi South 21.9 mph - N/A   Clear
12:55 AM 21.2 °F 5.6 °F 10.0 °F 62% 29.95 in 10.0 mi South 20.7 mph 27.6 mph N/A   Clear
1:15 AM 21.2 °F 5.6 °F 10.4 °F 63% 29.94 in 10.0 mi South 20.7 mph - N/A   Clear
1:35 AM 21.4 °F 5.5 °F 10.4 °F 63% 29.93 in 10.0 mi South 21.9 mph 26.5 mph N/A   Clear
1:55 AM 21.2 °F 6.0 °F 10.6 °F 64% 29.93 in 10.0 mi South 19.6 mph 25.3 mph N/A   Clear
2:15 AM 21.2 °F 7.3 °F 10.9 °F 65% 29.93 in 10.0 mi South 16.1 mph 23.0 mph N/A   Clear
2:35 AM 21.9 °F 6.5 °F 11.1 °F 63% 29.93 in 10.0 mi South 20.7 mph 25.3 mph N/A   Clear
2:55 AM 21.9 °F 6.5 °F 11.3 °F 64% 29.92 in 10.0 mi South 20.7 mph 26.5 mph N/A   Clear
3:15 AM 21.9 °F 6.9 °F 11.7 °F 65% 29.91 in 10.0 mi South 19.6 mph - N/A   Clear
3:35 AM 21.9 °F 6.2 °F 12.0 °F 66% 29.90 in 10.0 mi South 21.9 mph - N/A   Clear
3:55 AM 21.9 °F 6.9 °F 12.2 °F 66% 29.88 in 10.0 mi South 19.6 mph - N/A   Clear
4:15 AM 21.9 °F 6.2 °F 12.2 °F 66% 29.88 in 10.0 mi South 21.9 mph 26.5 mph N/A   Clear
4:35 AM 22.3 °F 5.9 °F 12.6 °F 66% 29.86 in 10.0 mi South 24.2 mph - N/A   Clear
4:55 AM 22.3 °F 5.9 °F 12.7 °F 67% 29.86 in 10.0 mi South 24.2 mph 28.8 mph N/A   Clear
5:15 AM 22.1 °F 7.6 °F 13.1 °F 68% 29.87 in 10.0 mi South 18.4 mph - N/A   Clear
5:35 AM 22.8 °F 8.1 °F 13.1 °F 66% 29.85 in 10.0 mi South 19.6 mph 26.5 mph N/A   Clear
5:55 AM 23.0 °F 8.0 °F 13.5 °F 67% 29.84 in 10.0 mi South 20.7 mph 26.5 mph N/A   Clear
6:15 AM 23.4 °F 7.4 °F 13.5 °F 66% 29.83 in 10.0 mi South 24.2 mph 29.9 mph N/A   Clear
6:35 AM 23.9 °F 8.4 °F 13.8 °F 65% 29.83 in 10.0 mi South 23.0 mph 27.6 mph N/A   Scattered Clouds
6:55 AM 23.9 °F 7.8 °F 13.6 °F 65% 29.82 in 10.0 mi South 25.3 mph 28.8 mph N/A   Scattered Clouds
7:15 AM 24.3 °F 9.6 °F 13.6 °F 64% 29.82 in 10.0 mi South 20.7 mph 28.8 mph N/A   Clear
7:35 AM 24.6 °F 9.1 °F 13.8 °F 64% 29.81 in 10.0 mi South 24.2 mph 32.2 mph N/A   Clear
7:55 AM 24.8 °F 9.6 °F 13.8 °F 63% 29.81 in 10.0 mi South 23.0 mph 28.8 mph N/A   Clear
8:15 AM 24.8 °F 8.7 °F 14.0 °F 64% 29.80 in 10.0 mi South 26.5 mph 33.4 mph N/A   Mostly Cloudy
8:35 AM 25.2 °F 10.1 °F 14.5 °F 64% 29.78 in 10.0 mi South 23.0 mph 28.8 mph N/A   Mostly Cloudy
8:55 AM 25.2 °F 10.4 °F 14.5 °F 64% 29.77 in 10.0 mi South 21.9 mph 29.9 mph N/A   Mostly Cloudy
9:15 AM 25.5 °F 10.9 °F 14.9 °F 64% 29.75 in 10.0 mi South 21.9 mph 26.5 mph N/A   Mostly Cloudy
9:35 AM 25.7 °F 11.5 °F 15.1 °F 64% 29.75 in 10.0 mi South 20.7 mph 29.9 mph N/A   Scattered Clouds
9:55 AM 26.6 °F 11.4 °F 14.9 °F 61% 29.74 in 10.0 mi South 25.3 mph 32.2 mph N/A   Clear
10:15 AM 27.5 °F 13.2 °F 14.9 °F 59% 29.73 in 10.0 mi South 23.0 mph 28.8 mph N/A   Clear
10:35 AM 28.4 °F 13.3 °F 15.1 °F 57% 29.71 in 10.0 mi South 27.6 mph 33.4 mph N/A   Clear
10:55 AM 28.9 °F 14.0 °F 15.8 °F 58% 29.69 in 10.0 mi South 27.6 mph 34.5 mph N/A   Clear
11:15 AM 29.8 °F 15.7 °F 15.8 °F 56% 29.68 in 10.0 mi South 25.3 mph 29.9 mph N/A   Clear
11:35 AM 30.4 °F 16.7 °F 15.6 °F 54% 29.66 in 10.0 mi South 24.2 mph 35.7 mph N/A   Clear
11:55 AM 31.1 °F 18.0 °F 16.0 °F 54% 29.70 in 10.0 mi SSW 23.0 mph 32.2 mph N/A   Clear
12:15 PM 32.0 °F 20.5 °F 16.3 °F 52% 29.69 in 10.0 mi SSW 18.4 mph 21.9 mph N/A   Scattered Clouds
12:35 PM 32.9 °F 20.4 °F 15.6 °F 49% 29.68 in 10.0 mi SW 23.0 mph 29.9 mph N/A   Mostly Cloudy
12:55 PM 32.9 °F 21.3 °F 15.8 °F 49% 29.67 in 10.0 mi SSW 19.6 mph 24.2 mph N/A   Overcast
1:15 PM 32.7 °F 18.4 °F 17.4 °F 53% 29.67 in 7.0 mi SW 31.1 mph 40.3 mph N/A   Overcast
1:35 PM 29.3 °F 14.2 °F 24.8 °F 83% 29.68 in 0.2 mi SW 28.8 mph 41.4 mph N/A Snow Heavy Snow
1:55 PM 28.9 °F 14.8 °F 26.2 °F 90% 29.68 in 1.0 mi SW 24.2 mph 29.9 mph N/A Snow Light Snow
2:15 PM 29.3 °F 15.9 °F 26.4 °F 89% 29.69 in 3.0 mi SW 21.9 mph 26.5 mph N/A Snow Light Snow
2:35 PM 30.2 °F 17.4 °F 26.1 °F 85% 29.70 in 7.0 mi SW 20.7 mph 32.2 mph N/A   Overcast
2:55 PM 30.6 °F 17.3 °F 25.5 °F 82% 29.70 in 5.0 mi SW 23.0 mph 32.2 mph N/A   Haze
3:15 PM 30.9 °F 19.1 °F 25.7 °F 81% 29.71 in 10.0 mi SW 18.4 mph 28.8 mph N/A   Overcast
3:35 PM 31.3 °F 18.9 °F 26.2 °F 82% 29.72 in 7.0 mi SW 20.7 mph 27.6 mph N/A   Overcast
3:55 PM 31.6 °F 19.7 °F 26.6 °F 82% 29.72 in 10.0 mi SW 19.6 mph 24.2 mph N/A   Overcast
4:15 PM 31.8 °F 19.0 °F 26.6 °F 81% 29.73 in 10.0 mi SSW 23.0 mph 27.6 mph N/A   Overcast
4:35 PM 32.0 °F 19.5 °F 26.4 °F 80% 29.74 in 10.0 mi SW 21.9 mph 26.5 mph N/A   Overcast
4:55 PM 32.0 °F 20.1 °F 26.4 °F 80% 29.74 in 10.0 mi SSW 19.6 mph 26.5 mph N/A   Overcast
5:15 PM 32.0 °F 20.5 °F 26.6 °F 80% 29.74 in 10.0 mi SW 18.4 mph 25.3 mph N/A   Overcast
5:35 PM 32.0 °F 19.5 °F 27.0 °F 82% 29.75 in 10.0 mi SW 21.9 mph 26.5 mph N/A   Overcast
5:55 PM 32.2 °F 19.7 °F 27.3 °F 82% 29.76 in 10.0 mi SW 21.9 mph 26.5 mph N/A   Overcast
6:15 PM 32.5 °F 20.5 °F 27.5 °F 82% 29.76 in 10.0 mi SW 20.7 mph 28.8 mph N/A   Overcast
6:35 PM 32.5 °F 20.8 °F 27.9 °F 83% 29.77 in 10.0 mi SW 19.6 mph 27.6 mph N/A   Overcast
6:55 PM 32.5 °F 21.5 °F 28.2 °F 84% 29.78 in 10.0 mi SW 17.3 mph - N/A   Overcast
7:15 PM 32.5 °F 20.8 °F 28.4 °F 85% 29.79 in 10.0 mi SW 19.6 mph - N/A   Overcast
7:35 PM 32.5 °F 21.5 °F 28.4 °F 85% 29.80 in 10.0 mi SW 17.3 mph 24.2 mph N/A   Overcast
7:55 PM 32.5 °F 21.5 °F 28.6 °F 85% 29.80 in 10.0 mi WSW 17.3 mph 21.9 mph N/A   Overcast
8:15 PM 31.8 °F 20.6 °F 26.4 °F 80% 29.82 in 10.0 mi WNW 17.3 mph 25.3 mph N/A   Overcast
8:35 PM 26.8 °F 12.6 °F 20.7 °F 78% 29.85 in 10.0 mi WNW 21.9 mph 27.6 mph N/A   Mostly Cloudy
8:55 PM 24.4 °F 10.6 °F 19.0 °F 80% 29.87 in 10.0 mi WNW 18.4 mph 23.0 mph N/A   Scattered Clouds
9:15 PM 23.2 °F 10.8 °F 18.1 °F 81% 29.88 in 10.0 mi WNW 13.8 mph - N/A   Clear
9:35 PM 22.6 °F 10.7 °F 17.6 °F 81% 29.90 in 10.0 mi West 12.7 mph 20.7 mph N/A   Clear
9:55 PM 21.2 °F 8.3 °F 16.0 °F 80% 29.91 in 10.0 mi West 13.8 mph - N/A   Clear
10:15 PM 20.3 °F 6.6 °F 15.3 °F 81% 29.91 in 10.0 mi West 15.0 mph - N/A   Clear
10:35 PM 19.9 °F 6.7 °F 14.9 °F 81% 29.93 in 10.0 mi West 13.8 mph 20.7 mph N/A   Clear
10:55 PM 19.8 °F 7.1 °F 14.4 °F 80% 29.93 in 10.0 mi West 12.7 mph - N/A   Clear
11:15 PM 19.4 °F 6.0 °F 14.4 °F 81% 29.94 in 10.0 mi West 13.8 mph 19.6 mph N/A   Clear
11:35 PM 19.2 °F 5.8 °F 14.0 °F 80% 29.94 in 10.0 mi WNW 13.8 mph 19.6 mph N/A   Clear
11:55 PM 18.5 °F 5.5 °F 13.5 °F 81% 29.97 in 10.0 mi West 12.7 mph - N/A   Clear